Location: San Antonio
(29.4240°N, 98.4930°W)
Time: 03:52:25
(UTC-05:00)

SR - Visible Passes

Search period start: 15 July 2024 00:00
Search period end: 25 July 2024 00:00
Orbit: 580 x 857 km, 66.7° (Epoch: 14 July)

Date Brightness Start Highest point End Pass type
(mag) Time Alt. Az. Time Alt. Az. Time Alt. Az.
15 Jul ? 05:32:10 20° SSW 05:35:29 75° WNW 05:40:02 10° NNE visible
16 Jul ? 04:41:35 31° SSE 04:43:06 41° ESE 04:47:24 10° NE visible
17 Jul ? 03:50:55 16° ESE 03:50:55 16° ESE 03:53:36 10° ENE visible
17 Jul ? 05:30:09 24° WSW 05:32:21 38° WNW 05:36:33 10° N visible
18 Jul ? 04:39:25 71° S 04:39:53 81° ESE 04:44:24 10° NNE visible
19 Jul ? 03:48:37 27° E 03:48:37 27° E 03:51:29 10° NE visible
19 Jul ? 05:27:50 18° W 05:29:15 20° WNW 05:32:37 10° N visible
20 Jul ? 04:36:59 50° NW 04:36:59 50° NW 04:41:02 10° NNE visible
21 Jul ? 03:46:04 33° NE 03:46:04 33° NE 03:48:39 10° NNE visible
21 Jul ? 05:25:17 10° WNW 05:26:14 11° NW 05:27:25 10° NW visible
22 Jul ? 02:55:06 11° ENE 02:55:06 11° ENE 02:55:23 10° ENE visible
22 Jul ? 04:34:18 25° NW 04:34:18 25° NW 04:37:17 10° N visible
23 Jul ? 03:43:17 28° NNE 03:43:17 28° NNE 03:45:24 10° NNE visible
24 Jul ? 02:52:14 13° NE 02:52:14 13° NE 02:52:46 10° NE visible
24 Jul ? 04:31:26 14° NW 04:31:26 14° NW 04:32:51 10° NNW visible
